| time (UTC) | temp F | wind direction | speed MPH | gust MPH | rain 1hr in | rain 24hr in | rain mn in | humidity % | barometer mb |
| 20260505073045 | 48 | 172 | 0.0 | 0.0 | 0.00 | 0.00 | 0.00 | 93 | 1011.0 |
| 20260505071548 | 47 | 172 | 0.0 | 0.0 | 0.00 | 0.00 | 0.00 | 93 | 1010.9 |
| 20260505070041 | 48 | 172 | 0.0 | 0.0 | 0.00 | 0.00 | 0.00 | 92 | 1011.1 |
| 20260505064543 | 48 | 172 | 0.0 | 0.0 | 0.00 | 0.00 | 0.00 | 93 | 1011.0 |
| 20260505063040 | 47 | 172 | 0.0 | 0.0 | 0.00 | 0.00 | 0.00 | 92 | 1011.1 |
| 20260505061538 | 47 | 172 | 0.0 | 0.0 | 0.00 | 0.00 | 0.00 | 91 | 1011.2 |
| 20260505060038 | 48 | 172 | 0.0 | 0.0 | 0.00 | 0.00 | 0.00 | 91 | 1011.4 |
| 20260505054536 | 48 | 172 | 0.0 | 0.0 | 0.00 | 0.00 | 0.00 | 90 | 1011.5 |
| 20260505053035 | 49 | 172 | 0.0 | 0.0 | 0.00 | 0.00 | 0.00 | 90 | 1011.4 |
| 20260505051530 | 49 | 172 | 0.0 | 0.0 | 0.00 | 0.00 | 0.00 | 91 | 1011.5 |
| 20260505041522 | 49 | 172 | 0.0 | 0.0 | 0.00 | 0.00 | 0.00 | 88 | 1012.0 |
| 20260505040022 | 49 | 172 | 0.0 | 0.0 | 0.00 | 0.00 | 0.00 | 87 | 1011.9 |
| 20260505034523 | 50 | 172 | 0.0 | 0.0 | 0.00 | 0.00 | 0.00 | 85 | 1011.9 |
| 20260505033029 | 50 | 172 | 0.0 | 0.0 | 0.00 | 0.00 | 0.00 | 85 | 1012.1 |
| 20260505031517 | 50 | 172 | 0.0 | 2.0 | 0.00 | 0.00 | 0.00 | 84 | 1012.0 |
| 20260505030017 | 50 | 115 | 0.0 | 0.0 | 0.00 | 0.00 | 0.00 | 84 | 1012.1 |
| 20260505024516 | 51 | 115 | 0.0 | 0.0 | 0.00 | 0.00 | 0.00 | 84 | 1012.1 |
| 20260505023018 | 51 | 134 | 0.0 | 1.0 | 0.00 | 0.00 | 0.00 | 83 | 1012.1 |
| 20260505021516 | 52 | 177 | 0.0 | 0.0 | 0.00 | 0.00 | 0.00 | 83 | 1012.2 |
| 20260505020018 | 52 | 174 | 0.0 | 1.0 | 0.00 | 0.00 | 0.00 | 82 | 1012.1 |
| 20260505014524 | 52 | 172 | 0.0 | 2.0 | 0.00 | 0.00 | 0.00 | 81 | 1012.0 |
| 20260505013014 | 53 | 171 | 0.0 | 1.0 | 0.00 | 0.00 | 0.00 | 80 | 1012.2 |
| 20260505011514 | 53 | 294 | 0.0 | 4.0 | 0.00 | 0.00 | 0.00 | 79 | 1011.9 |
| 20260505010013 | 53 | 170 | 1.0 | 5.0 | 0.00 | 0.00 | 0.00 | 79 | 1011.8 |
| 20260505004517 | 52 | 251 | 1.0 | 4.0 | 0.00 | 0.00 | 0.00 | 80 | 1011.6 |
| 20260505003012 | 53 | 90 | 0.0 | 2.0 | 0.00 | 0.00 | 0.00 | 78 | 1011.3 |
| 20260505001512 | 53 | 249 | 0.0 | 2.0 | 0.00 | 0.00 | 0.00 | 77 | 1011.1 |
| 20260505000014 | 54 | 182 | 1.0 | 8.0 | 0.00 | 0.00 | 0.00 | 76 | 1010.8 |
| 20260504234511 | 55 | 304 | 1.0 | 6.0 | 0.00 | 0.00 | 0.00 | 74 | 1010.7 |
| 20260504233010 | 56 | 272 | 1.0 | 6.0 | 0.00 | 0.00 | 0.00 | 71 | 1010.5 |
| 20260504231509 | 56 | 319 | 2.0 | 7.0 | 0.00 | 0.00 | 0.00 | 68 | 1010.3 |
| 20260504230008 | 57 | 302 | 3.0 | 8.0 | 0.00 | 0.00 | 0.00 | 66 | 1010.1 |
| 20260504224507 | 58 | 338 | 2.0 | 13.0 | 0.00 | 0.00 | 0.00 | 64 | 1010.1 |
| 20260504223007 | 59 | 269 | 4.0 | 12.0 | 0.00 | 0.00 | 0.00 | 61 | 1010.2 |
| 20260504221510 | 60 | 292 | 5.0 | 18.0 | 0.00 | 0.00 | 0.00 | 59 | 1010.1 |
| 20260504220008 | 61 | 212 | 6.0 | 13.0 | 0.00 | 0.00 | 0.00 | 55 | 1010.2 |
| 20260504214504 | 61 | 264 | 7.0 | 19.0 | 0.00 | 0.00 | 0.00 | 53 | 1010.0 |
| 20260504213004 | 62 | 330 | 4.0 | 16.0 | 0.00 | 0.00 | 0.00 | 53 | 1010.2 |
| 20260504211510 | 63 | 182 | 5.0 | 10.0 | 0.00 | 0.00 | 0.00 | 52 | 1010.2 |
| 20260504210001 | 64 | 191 | 4.0 | 16.0 | 0.00 | 0.00 | 0.00 | 50 | 1010.2 |
| 20260504204630 | 65 | 293 | 6.0 | 12.0 | 0.00 | 0.00 | 0.00 | 48 | 1010.1 |
| 20260504203135 | 66 | 305 | 4.0 | 10.0 | 0.00 | 0.00 | 0.00 | 46 | 1010.0 |
| 20260504201559 | 66 | 184 | 3.0 | 13.0 | 0.00 | 0.00 | 0.00 | 46 | 1009.9 |
| 20260504200058 | 66 | 260 | 3.0 | 11.0 | 0.00 | 0.00 | 0.00 | 45 | 1009.9 |
| 20260504194556 | 65 | 170 | 3.0 | 11.0 | 0.00 | 0.00 | 0.00 | 47 | 1010.1 |
| 20260504193056 | 66 | 80 | 4.0 | 13.0 | 0.00 | 0.00 | 0.00 | 48 | 1010.1 |
| 20260504191558 | 65 | 312 | 4.0 | 14.0 | 0.00 | 0.00 | 0.00 | 48 | 1010.1 |
| 20260504190055 | 67 | 306 | 3.0 | 12.0 | 0.00 | 0.00 | 0.00 | 45 | 1010.3 |
| 20260504184550 | 66 | 300 | 3.0 | 10.0 | 0.00 | 0.00 | 0.00 | 45 | 1010.3 |
| 20260504183050 | 65 | 220 | 4.0 | 11.0 | 0.00 | 0.00 | 0.00 | 47 | 1010.4 |
| 20260504181547 | 65 | 241 | 5.0 | 17.0 | 0.00 | 0.00 | 0.00 | 44 | 1010.7 |
| 20260504180046 | 66 | 181 | 2.0 | 12.0 | 0.00 | 0.00 | 0.00 | 42 | 1011.0 |
| 20260504174546 | 64 | 308 | 2.0 | 11.0 | 0.00 | 0.00 | 0.00 | 44 | 1011.1 |
| 20260504173052 | 65 | 152 | 2.0 | 10.0 | 0.00 | 0.00 | 0.00 | 42 | 1010.9 |
| 20260504171541 | 65 | 319 | 2.0 | 12.0 | 0.00 | 0.00 | 0.00 | 41 | 1011.1 |
| 20260504081518 | 42 | 279 | 0.0 | 0.0 | 0.00 | 0.00 | 0.00 | 81 | 1012.1 |